Preview of NWS' New Version of Forecast
This preview is not operational and should not be used for support decisions.

Regional Weather Roundup (RWR)

Issued by National Weather Service (NWS)

                            
000
ASUS45 KCYS 210410
RWRWY 

WYOMING REGIONAL WEATHER ROUNDUP
NATIONAL WEATHER SERVICE CHEYENNE WY
1000 PM MDT TUE AUG 20 2019

NOTE:  "FAIR" INDICATES FEW OR NO CLOUDS BELOW 12,000 FEET
WITH NO SIGNIFICANT WEATHER AND/OR OBSTRUCTIONS TO VISIBILITY.

WYZ001-210500-
YELLOWSTONE NATIONAL PARK
  
CITY           SKY/WX    TMP DP  RH WIND       PRES   REMARKS
LK YELLOWSTONE   N/A     53  40  61 CALM      30.36R                  
W YELLOWSTONE  NOT AVBL                                               

$$
WYZ002>013-054>058-071-098>099-210500-
NORTHERN WYOMING
  
CITY           SKY/WX    TMP DP  RH WIND       PRES   REMARKS
JACKSON        FAIR      60  37  42 NE5       30.22R                  
CODY           FAIR      71  51  49 N6        30.18R                  
GREYBULL       FAIR      80  52  37 NW14      30.02R                  
WORLAND        FAIR      76  51  41 NE8       30.09R                  
SHERIDAN       FAIR      67  53  61 NW9       30.10S                  
BUFFALO        FAIR      73  53  49 S15       30.20R                  
GILLETTE       FAIR      72  54  53 SE15      30.16S                  
HULETT         FAIR      66  55  68 E3        30.19                   
NEWCASTLE      FAIR      72  46  40 E6        30.20                   

$$
WYZ014>020-022>026-101>103-210500-
CENTRAL WYOMING
  
CITY           SKY/WX    TMP DP  RH WIND       PRES   REMARKS
BIG PINEY      FAIR      61  27  27 N12       30.25R                  
PINEDALE       FAIR      64  23  20 W7        30.27                   
DUBOIS         FAIR      66  30  26 SW5       30.28                   
LANDER         FAIR      75  31  19 W8        30.15R                  
RIVERTON       FAIR      76  51  41 E20G33    30.14R                  
CASPER         FAIR      70  52  52 E10G22    30.15R                  
DOUGLAS        FAIR      65  54  67 E9        30.19F                  

$$
WYZ021-027>030-104>119-210500-
SOUTHERN WYOMING
  
CITY           SKY/WX    TMP DP  RH WIND       PRES   REMARKS
EVANSTON       FAIR      73  19  13 CALM      30.27R                  
KEMMERER       FAIR      64  25  22 NW7       30.28                   
ROCK SPRINGS   FAIR      74  21  13 S3        30.22R                  
DIXON          FAIR      58  19  22 SE12      30.24R                  
RAWLINS        FAIR      63  21  20 N3        30.24R                  
SARATOGA       FAIR      63  32  31 NE3       30.26R                  
LARAMIE        FAIR      69  46  43 E15       30.32R                  
CHEYENNE       FAIR      72  58  61 NE7       30.28R                  
TORRINGTON     TSTM      62  58  86 N15G32    30.21R FOG              
PINE BLUFFS    FAIR      72  61  68 E21G28    30.17F                  

$$